Location: Melbourne
(37.8120°S, 144.9677°E)
Time: 17:07:33
(UTC+10:00)

ISS - Visible Passes

Search period start: 06 July 2015 00:00
Search period end: 16 July 2015 00:00
Orbit: 398 x 403 km, 51.6° (Epoch: 05 July)

Date Brightness Start Highest point End Pass type
(mag) Time Alt. Az. Time Alt. Az. Time Alt. Az.
06 Jul -1.0 17:45:04 10° NNE 17:46:14 12° NE 17:47:33 10° ENE visible
06 Jul -1.8 19:19:02 10° WNW 19:21:11 36° WNW 19:21:11 36° WNW visible
07 Jul -3.2 18:25:31 10° NW 18:28:45 61° NE 18:30:07 31° ESE visible
08 Jul -1.7 19:08:43 10° W 19:11:32 29° SW 19:11:32 29° SW visible
09 Jul -2.8 18:14:44 10° WNW 18:17:58 53° SW 18:20:18 17° SE visible
10 Jul -1.1 18:58:48 10° WSW 19:01:06 17° SSW 19:01:33 17° SSW visible
11 Jul -1.6 18:04:25 10° W 18:07:15 26° SSW 18:10:07 10° SSE visible
12 Jul -0.7 18:49:21 10° SW 18:50:35 11° SSW 18:51:19 11° S visible
13 Jul -1.0 17:54:28 10° WSW 17:56:37 16° SSW 17:58:44 10° SSE visible
15 Jul -0.7 17:45:03 10° SSW 17:46:00 11° SSW 17:46:54 10° S visible
